ASTRA 5B

Last updated on Thu Nov 21 2024 00:02:42 GMT+0000 (Coordinated Universal Time)

1 39617U 14011B 24325.29992663 .00000138 00000+0 00000+0 0 9995 2 39617 0.0651 311.4394 0004408 297.2458 302.6297 1.00270650 38919
UTC large
Height (km)
Speed (km/s)
/
Latitude / Longitude
Inclination (degrees)
Orbital Period (minutes)
Azimuth
Elevation
Range (km)
Doppler Factor

Next 0 passes for location: London (51.5072 / 0.1276)

Sorry there are no passes over London.